Regional Weather Roundup
Issued by NWS Charleston, SC

Current Version | Previous Version | Graphics & Text | Print | Product List | Glossary On
Versions: 1 2 3 4 5 6 7 8 9 10 11 12 13 14 15 16 17 18 19 20 21 22 23 24 25 26 27 28 29 30 31 32 33 34 35 36 37 38 39 40 41 42 43 44 45 46 47 48 49 50
000
ASUS42 KCHS 191927
RWRCHS

Regional Weather Roundup
National Weather Service Charleston SC
200 PM EST FRI JAN 19 2018

NOTE: "fair" indicates few or no clouds below 12,000 feet with no
significant weather and/or obstructions to visibility.

Not all stations are quality controlled. Use data with caution,
especially dewpoint observations.

SCZ027-030-031-034>040-042>050-192000-
...Southeast South Carolina...

CITY           SKY/WX    TMP DP  RH WIND       PRES   REMARKS
N Charleston   FAIR      60  17  18 W10       30.23F
Waterfront Prk NOT AVBL
Mount Pleasant FAIR      57  21  24 W8        30.23F
Johns Island   FAIR      59  28  31 VRB6      30.23F
Pinopolis        N/A     48  30  49 CALM      30.15F
Moncks Corner  FAIR      59  12  15 SW9       30.22S
Summerville    FAIR      59  14  17 SW7       30.22F
Beaufort MCAS  FAIR      58  14  17 W6        30.25F
Beaufort Arpt  FAIR      55  21  26 W3        30.24F
Hilton Head Is SUNNY     55  16  21 W9        30.27F
Walterboro     FAIR      59  12  15 W10       30.23F
Allendale      FAIR      61   1   9 W7        30.21F

...Southern Midlands and Pee Dee...

CITY           SKY/WX    TMP DP  RH WIND       PRES   REMARKS
Georgetown     FAIR      59  18  20 W8        30.22F
Kingstree      FAIR      57  10  15 SW8       30.20F
Orangeburg     FAIR      57  14  18 SW9       30.21F
Barnwell         N/A     61  12  15 W10       30.21F
Aiken          FAIR      55   9  15 W9        30.23F
Manning        FAIR      59  -9   6 MISG      30.20F
Columbia       FAIR      58  19  22 VRB6      30.20F
Sumter         FAIR      56  16  20 SW7       30.17F
Florence       FAIR      57  15  19 SW8       30.19F
Myrtle Beach   FAIR      54  31  41 S10       30.22F
N Myrtle Beach FAIR      51  31  46 S10       30.21F

$$

GAZ063-065-086>088-099>101-113>116-118-119-134>141-150-192000-
...Southeast Georgia...

CITY           SKY/WX    TMP DP  RH WIND       PRES   REMARKS
Savannah Arpt  FAIR      60  13  15 W10       30.26F
Hunter AAF     FAIR      59  15  18 W8        30.23F
Fort Stewart   FAIR      57  16  20 NW7       30.25F
Statesboro     FAIR      60  -9   6 W7        30.25F
Sylvania       FAIR      60  14  16 W5        30.24F
Claxton        FAIR      60   6  11 W7        30.26F

...CSRA, Central and far Southeast Georgia...

CITY           SKY/WX    TMP DP  RH WIND       PRES   REMARKS
Thomson        FAIR      59   6  12 NW8       30.26F
Augusta-Bush   FAIR      60   5  11 W12       30.21F
Augusta-Daniel FAIR      59   9  13 VRB7      30.22F
Swainsboro     FAIR      57  12  17 W6        30.25F
Vidalia        FAIR      59  18  20 W6        30.26F
Eastman        FAIR     N/A N/A N/A NW6       30.28F
Hazlehurst     FAIR      59 -31   2 W6        30.25F
Alma           FAIR      57  13  17 VRB3      30.27F
Waycross       FAIR      58   0   9 NW6       30.27F
Jesup          FAIR      57  12  17 W3        30.27F
Baxley         FAIR      54  12  19 CALM      30.26F
Brunswick      FAIR      57  19  23 SW6       30.27F
Saint Simons   FAIR      57  19  22 SW10      30.27F

$$

SCZ027-028-034-036>038-045-046-048>050-GAZ119-141-192000-
...Lake and Supplemental Coastal Observations...

STATION/POSITION TIME  TEMP    WIND        PRES    WAVE   SWELL
                       AIR SEA DIR/SP/G            HT/PER HT/PER/DIR
                 (UTC) (F)     (DEG/KT/KT) (MB)    (FT/S) (FT/S/D)
Winyah Bay       1845   57     240/  6     1023.0F
Lake Murray      1850   50     280/  6/  9 1022.0F
ACE Basin NERRS  1845   55     240/  5     1024.0F
Fort Pulaski     1900   53 45  290/  7/  8 1024.6
Sapelo Island    1900   56     250/  5     1025.0

$$

ANZ835-935-AMZ111-154-330-350-352-354-370-450-454-472-192000-
...C-MAN and Buoy Observations...

STATION/POSITION TIME  TEMP    WIND        PRES    WAVE   SWELL
                       AIR SEA DIR/SP/G            HT/PER HT/PER/DIR
                 (UTC) (F)     (DEG/KT/KT) (MB)    (FT/S) (FT/S/D)
Buoy 41004       1910   55     260/ 16/ 23 1024.1
Buoy 41008       1850   47 51  190/ 10/ 12 1025.4F   2/11   2/ 60/11
Folly Beach CMAN 1900   48     220/ 15/ 18 1024.8F
Capers Nearshore 1908   45 48  230/ 12/ 17 1023.6F
Fripp Nearshore  1908   45 46  240/  8/ 10 1023.7F


STATION/POSITION TIME  TEMP    WIND        PRES    WAVE   SWELL
                       AIR SEA DIR/SP/G            HT/PER HT/PER/DIR
                 (UTC) (F)     (DEG/KT/KT) (MB)    (FT/S) (FT/S/D)
5E St. Marys GA  1900      50                N/A     2/12   2/ 90/12
Frying Pan Buoy  1910   53     260/ 16/ 19 1023.3
Buoy 41025       1910   54     270/ 16/ 21 1022.1
Cape Lookout NC  1900          240/ 10/ 15 1022.6F
Buoy 41002       1850   60 70  290/  8/ 12 1023.8F   8/11   8/ 40/11
Buoy 41010       NOT AVBL
St Augustine FL  1900   49 50   70/  5/  6 1026.3F


$$




USA.gov is the U.S. government's official web portal to all federal, state and local government web resources and services.